Theta_e
340 340 338 330 319 318 312 316 320 316 323 332 334 331 329 332 328 321 346 347 356 355 359 357 360 358 359 360 357 356 357 358 357 355 353 350 351 350 352 351 350 350 347 344 342 342 341 341 340
337 328 328 325 312 303 313 317 315 322 330 333 332 330 330 328 339 339 341 347 353 356 358 358 358 357 357 356 358 358 357 356 355 353 349 347 349 350 351 351 350 347 344 342 343 342 341 340 340
326 326 320 318 312 311 312 318 319 325 331 328 327 333 334 333 340 342 347 349 349 355 357 359 357 356 356 356 357 355 355 355 352 349 346 346 348 350 350 350 349 345 342 342 342 342 340 340 339
325 323 322 315 308 316 318 320 323 325 328 329 330 330 338 346 342 346 350 348 346 353 357 357 355 354 355 354 353 355 354 352 348 346 345 345 346 349 350 349 347 342 340 340 341 340 339 339 338
323 320 315 313 313 317 319 322 326 322 326 327 329 328 334 344 346 347 346 343 349 350 353 356 355 355 355 354 353 354 353 349 347 345 345 345 346 349 348 347 343 340 339 339 340 338 338 337 336
317 319 311 307 311 316 318 321 325 322 327 327 328 330 335 345 341 341 343 343 347 348 349 351 354 354 354 355 352 352 351 348 346 345 344 343 345 346 343 342 341 340 338 338 338 337 335 334 334
315 316 312 313 312 314 319 325 323 327 328 330 333 328 337 340 342 343 343 344 345 345 346 348 350 352 353 352 351 350 348 347 345 346 345 344 342 342 340 340 340 339 337 337 336 335 332 331 330
317 317 312 312 312 315 323 328 334 333 331 338 338 328 331 338 342 344 346 345 347 347 346 348 352 350 352 350 348 349 347 346 344 343 342 343 341 339 338 343 340 338 336 336 334 330 328 328 327
321 311 308 310 313 317 326 328 337 341 337 339 340 339 339 341 344 341 343 343 341 342 343 344 344 351 352 350 347 348 345 343 342 341 341 343 336 335 335 339 337 335 336 335 332 330 330 332 332
317 313 313 317 320 322 326 330 333 333 332 331 333 338 341 341 340 337 337 334 336 341 343 344 345 347 348 348 349 346 338 336 338 337 337 336 340 340 337 340 338 338 338 335 334 333 333 334 332
321 316 318 322 327 330 329 330 335 332 326 329 327 330 332 335 336 336 334 335 337 339 340 338 340 345 343 347 352 343 340 340 337 341 342 345 340 340 338 336 339 339 338 337 333 334 333 333 331
319 322 321 324 325 328 329 333 327 328 324 327 327 329 329 327 328 332 332 332 333 335 337 337 338 339 343 341 340 338 334 335 335 337 344 340 339 340 341 337 340 338 336 332 335 327 330 329 329
321 323 326 329 330 331 331 327 324 322 325 328 328 327 326 326 327 329 332 333 333 333 335 335 338 337 337 338 336 335 334 333 334 335 336 335 336 335 334 333 335 334 333 330 329 326 325 323 324
325 325 326 328 329 330 326 325 325 323 326 325 326 325 325 326 325 327 329 331 331 334 334 334 336 338 337 336 336 335 336 336 333 332 332 333 332 330 332 332 331 328 327 325 322 322 321 321 323
325 321 324 326 327 326 329 321 317 324 325 322 323 325 324 324 325 325 326 326 327 328 330 331 331 332 334 330 333 332 332 333 331 330 329 332 330 329 332 328 328 326 326 324 323 321 322 322 324
320 320 313 323 324 326 322 315 321 325 324 320 321 321 320 320 321 322 323 323 325 324 325 329 328 330 332 331 330 329 329 329 328 329 326 326 325 326 326 326 326 328 327 325 322 323 320 321 317
314 304 312 316 324 322 321 317 321 326 325 321 322 318 318 318 318 318 320 321 322 325 326 325 326 325 327 328 327 328 330 327 331 330 329 326 323 322 322 322 322 325 323 321 321 320 317 315 315
306 309 311 311 318 320 317 317 322 324 322 320 317 318 318 317 316 318 320 324 324 325 326 326 326 326 326 324 325 322 321 322 324 326 326 327 327 326 328 326 327 327 325 324 323 323 318 317 315
313 311 310 314 318 316 316 316 319 321 319 317 317 317 317 316 319 323 322 325 324 325 324 325 325 326 323 318 318 317 316 319 320 322 324 322 321 320 325 320 321 325 325 326 326 323 321 319 319
312 310 308 316 318 316 316 315 317 319 320 318 316 318 319 320 320 321 323 323 323 322 324 325 325 325 323 318 319 318 318 318 318 320 321 322 320 321 319 323 320 323 320 325 326 325 322 319 319
311 310 309 309 314 317 315 313 315 318 320 319 318 320 319 319 319 319 320 321 321 321 322 324 325 324 323 322 319 319 319 318 315 316 316 318 319 320 321 322 322 321 322 319 325 326 323 317 318
307 313 311 310 309 302 317 302 313 314 313 315 317 318 318 320 318 318 318 319 320 321 322 323 323 322 321 322 321 319 315 312 314 316 318 318 319 319 320 320 321 322 320 322 322 324 324 321 317
310 314 313 311 310 309 309 300 311 314 309 312 317 316 318 317 316 315 317 318 320 320 322 321 321 321 321 321 321 315 315 313 315 315 317 319 321 320 318 320 320 321 320 322 322 322 323 324 319
315 313 312 312 308 300 307 305 306 311 312 314 315 315 314 314 314 315 316 318 318 318 317 317 318 320 318 320 319 317 316 316 313 315 313 314 315 315 318 319 320 321 322 321 321 322 322 322 321
314 309 300 299 298 296 308 305 304 313 315 316 314 312 313 314 312 315 316 315 315 314 314 315 314 314 316 315 316 316 317 316 316 315 313 313 313 314 318 320 320 319 320 320 321 321 320 321 320
309 309 301 293 293 297 305 301 302 313 317 316 315 315 314 312 315 314 315 314 314 314 312 312 312 312 313 314 315 315 315 313 313 314 313 312 312 315 318 318 319 318 319 319 319 317 318 320 321
308 305 309 302 304 299 302 307 310 313 313 313 313 312 311 314 313 315 316 314 311 311 312 311 311 311 313 313 313 313 314 313 311 312 312 312 315 314 315 317 317 317 317 317 317 315 315 318 320
310 310 302 303 294 292 298 301 300 305 307 311 310 312 313 312 313 312 312 311 313 312 310 312 312 313 311 312 311 311 311 311 311 311 311 311 313 315 315 315 315 316 316 315 316 313 313 314 314
306 306 307 306 305 296 294 299 308 307 309 310 311 312 311 311 311 311 311 312 310 310 312 311 312 310 311 310 310 310 309 309 309 309 309 309 311 313 312 312 311 311 313 314 314 311 312 311 313
310 308 308 302 299 303 300 301 309 311 310 310 310 309 311 311 311 309 310 308 310 308 308 308 310 308 308 309 311 309 307 308 309 308 307 309 309 311 311 312 311 311 310 313 313 312 313 312 312
Wind_Speed
10 12 11 9 4 7 9 17 19 19 17 17 13 15 22 19 16 8 8 5 22 16 13 12 8 10 11 9 8 9 10 12 13 12 13 12 12 13 12 12 14 14 15 17 17 17 17 17 17
15 9 9 7 7 10 18 2 21 19 14 11 6 14 19 20 15 12 11 6 17 12 8 10 8 8 11 8 9 10 10 12 11 10 11 12 12 13 13 13 13 14 15 16 17 16 16 17 17
16 13 11 11 12 6 16 17 18 17 9 5 16 15 12 8 16 7 10 8 12 14 10 12 9 7 9 9 8 8 10 11 10 10 10 10 10 11 11 12 13 13 15 15 15 15 15 15 15
8 9 8 10 22 15 15 11 17 17 15 14 15 17 11 10 15 14 8 8 9 18 15 12 10 8 7 8 8 10 10 9 9 10 11 11 11 9 9 11 12 13 13 14 13 14 14 14 14
9 11 14 7 15 11 8 3 27 19 19 19 21 19 17 8 7 12 10 6 23 12 17 11 9 8 8 9 8 10 10 9 9 9 10 11 11 10 10 9 10 11 11 11 11 12 11 12 12
12 11 6 9 16 10 9 6 9 24 21 21 19 16 11 3 5 10 8 7 20 13 7 11 11 7 6 9 7 8 10 9 9 9 10 10 10 11 10 8 8 8 8 9 9 10 10 9 10
17 13 19 14 14 11 3 8 11 8 25 19 8 18 12 9 4 11 11 11 14 16 10 5 10 11 10 8 8 8 10 9 9 8 8 9 10 10 9 8 7 6 7 7 7 7 6 5 5
12 14 3 8 10 15 4 12 17 21 18 13 4 11 14 12 8 12 21 18 14 9 8 11 7 5 7 9 10 10 9 8 8 7 7 8 8 8 7 8 7 5 5 5 5 3 2 4 3
13 15 8 18 15 12 11 14 19 20 19 20 22 21 15 11 16 6 11 15 8 9 8 9 8 7 7 7 8 10 10 8 5 6 5 8 9 9 11 10 8 4 5 4 3 2 7 11 11
10 5 17 7 10 12 14 16 12 17 16 15 17 16 16 15 10 11 15 9 10 11 9 7 6 3 6 6 6 6 7 7 6 9 9 10 5 2 6 7 10 10 8 7 8 10 12 12 8
8 12 9 8 12 13 13 13 15 14 13 13 10 15 14 16 14 15 11 11 12 13 10 13 11 9 8 5 2 3 2 2 4 11 9 7 5 6 8 7 9 8 11 8 10 11 7 10 8
14 9 8 12 4 9 15 17 22 22 12 13 15 14 16 15 11 12 13 9 12 13 13 13 13 10 10 7 4 0 7 1 3 2 5 8 8 6 4 7 3 2 2 10 6 8 10 10 12
11 11 13 14 15 18 19 18 14 17 15 11 13 14 14 13 13 12 10 10 10 13 14 14 14 13 11 11 8 6 5 4 8 10 12 10 10 10 10 9 9 8 7 9 8 9 9 8 10
10 10 12 11 15 14 16 13 6 9 12 11 13 14 12 14 12 11 10 12 12 12 12 11 12 12 10 9 8 5 6 6 8 7 7 8 7 7 7 5 5 6 7 7 5 5 7 7 10
14 14 14 16 11 16 19 13 10 8 11 12 12 13 15 14 12 13 11 12 12 13 14 13 12 13 12 12 10 9 7 7 5 6 7 7 7 6 7 5 5 2 2 4 3 4 5 6 8
15 13 10 14 10 7 7 11 12 10 12 13 11 13 12 13 12 11 11 11 9 11 10 9 7 9 8 7 5 4 4 3 4 3 5 5 5 4 5 4 4 4 3 3 2 4 4 4 5
9 10 8 11 2 2 4 11 7 12 10 14 13 13 11 12 11 9 8 8 7 6 11 12 12 11 9 7 6 3 2 2 2 1 1 2 3 4 3 3 3 2 2 3 3 4 4 4 3
12 12 5 10 9 5 7 9 10 7 9 11 13 11 11 11 8 6 7 6 8 9 7 7 9 11 9 7 8 7 7 8 3 2 4 8 7 8 5 6 7 6 6 5 7 7 5 5 6
7 10 5 6 5 5 6 8 8 8 11 11 7 9 9 8 9 8 6 8 7 6 9 9 9 10 10 9 8 8 8 7 7 4 4 6 5 10 7 9 8 6 9 9 9 7 8 8 9
6 8 15 7 3 6 9 8 6 8 8 14 8 7 12 12 12 10 7 9 8 5 6 8 10 10 9 9 7 7 9 7 5 1 7 7 7 10 11 10 8 9 8 11 7 9 7 8 4
10 16 14 10 3 12 2 14 15 10 10 10 9 8 7 9 9 7 7 5 4 6 7 9 10 10 10 11 9 8 9 7 9 10 6 8 9 7 6 9 7 10 9 6 5 7 9 9 7
6 7 9 9 9 13 20 12 19 14 10 7 5 7 3 8 9 7 4 6 6 7 8 8 8 9 9 11 10 11 10 9 8 4 4 7 6 5 11 7 11 9 10 10 7 5 6 8 8
10 12 14 16 15 17 9 7 8 14 8 7 6 6 5 9 8 6 17 15 4 4 6 10 8 9 13 11 13 8 9 8 7 7 9 5 5 4 9 6 9 8 7 9 8 7 6 5 5
7 13 17 16 7 7 8 9 15 11 13 6 10 9 8 8 11 9 3 13 4 7 12 13 11 11 13 10 8 9 11 11 11 10 9 8 7 8 6 7 9 7 7 6 6 6 6 6 6
9 15 12 13 6 9 13 2 9 13 16 11 13 10 9 5 2 1 5 11 10 10 11 13 15 12 13 12 12 12 12 13 12 12 9 11 9 9 10 9 8 7 7 6 7 6 6 6 7
19 8 9 14 15 15 12 8 7 9 10 14 12 8 6 3 1 4 9 11 12 13 11 11 12 12 11 11 15 12 12 9 9 10 9 9 8 8 10 8 7 7 7 7 7 7 7 6 4
13 12 17 12 19 15 10 12 10 9 7 4 4 6 2 4 4 11 8 10 11 8 12 13 10 11 14 14 11 9 11 12 12 13 12 9 9 10 11 7 6 7 7 8 7 7 8 6 5
13 8 10 8 7 9 18 11 9 10 6 4 2 1 4 1 12 7 9 8 7 12 12 10 10 14 11 13 11 11 13 14 11 9 10 10 10 9 9 8 8 7 7 7 6 7 7 7 6
12 9 7 4 8 9 10 9 9 8 11 9 6 4 10 9 8 7 6 14 17 13 12 13 13 12 11 10 11 12 11 14 11 9 10 11 10 9 6 7 9 8 7 5 4 4 5 4 4
4 8 7 9 7 7 11 7 4 9 12 8 7 8 8 9 12 11 13 15 13 13 13 14 13 12 10 11 11 12 11 13 11 11 9 8 8 7 7 6 6 5 5 6 5 3 3 4 5
Wind_Direction
209 218 242 258 251 109 100 88 82 69 64 57 51 45 68 42 19 55 102 50 87 96 118 138 112 115 109 106 117 119 112 107 106 117 122 118 112 109 103 101 100 93 91 90 85 80 75 69 61
278 268 245 276 16 298 74 197 80 83 87 109 91 91 76 60 85 82 104 129 92 93 109 118 110 110 110 103 100 115 120 110 111 114 119 119 118 116 114 110 103 96 96 92 88 81 72 66 57
265 265 267 195 217 60 110 96 101 108 128 151 98 55 39 2 57 82 88 107 99 103 98 104 106 106 111 115 119 114 107 107 117 121 117 112 112 115 116 112 106 99 95 87 82 79 71 64 57
261 231 243 46 286 81 90 123 118 128 120 78 98 91 96 7 58 79 104 82 124 106 101 104 105 109 125 119 123 114 108 115 120 120 119 119 117 109 108 106 103 98 92 88 82 75 68 60 49
236 258 256 157 74 64 69 11 61 326 102 91 88 81 88 42 64 97 115 138 70 76 96 108 119 124 124 123 126 124 116 116 120 122 120 117 117 113 107 106 106 99 93 90 85 79 68 54 43
253 253 357 20 96 99 36 279 146 180 107 94 97 90 76 117 108 107 116 95 95 93 92 125 123 119 113 114 116 115 113 115 116 123 123 122 120 122 120 119 113 108 99 90 86 75 61 49 36
254 264 167 187 110 98 91 287 342 87 74 47 89 77 112 128 156 107 89 85 80 77 82 193 107 118 118 107 105 108 110 111 114 120 128 132 132 131 131 129 133 130 115 98 93 79 59 39 27
282 282 152 52 116 73 77 35 20 51 56 97 318 125 128 124 158 76 73 64 68 88 58 77 79 78 79 112 121 124 119 118 123 133 146 150 144 147 152 160 145 138 135 109 105 86 12 291 279
263 276 84 32 50 100 133 79 65 59 64 47 45 71 105 144 91 128 78 80 71 58 36 72 50 65 84 115 142 136 126 118 136 161 188 194 203 182 168 112 130 150 151 141 151 213 261 271 238
293 29 60 12 52 64 47 106 132 115 94 72 74 70 68 54 59 55 53 68 60 48 37 23 25 93 126 129 123 115 87 39 309 214 183 237 237 284 11 125 155 167 180 194 209 228 248 260 349
22 30 57 86 73 80 70 60 36 99 53 55 76 61 64 69 67 73 75 53 51 50 28 27 26 17 91 40 77 111 106 46 318 320 324 282 313 240 221 221 189 192 189 216 199 220 245 12 345
85 50 87 91 61 80 73 74 56 56 78 74 75 71 76 73 57 65 65 39 57 58 44 37 38 31 30 101 143 128 28 41 306 296 12 353 298 253 304 313 6 90 101 7 347 35 13 350 325
102 93 92 83 73 69 73 68 81 77 81 82 91 85 81 84 86 77 70 65 71 61 52 49 44 42 31 38 40 57 48 18 34 32 22 15 1 4 5 9 25 20 20 19 14 2 359 326 308
121 122 120 123 110 96 95 85 85 96 102 91 85 86 91 83 71 69 64 52 41 56 51 45 52 50 49 51 51 50 46 30 46 34 29 19 4 356 -0 7 15 13 10 5 0 348 323 312 306
144 146 156 144 140 137 130 81 91 107 108 95 93 95 72 73 64 60 54 51 39 36 42 39 46 43 33 34 27 27 22 24 21 30 26 10 2 360 348 332 320 325 1 0 352 324 310 293 285
201 192 148 137 154 138 234 106 128 146 130 119 111 89 82 73 66 61 56 59 48 58 50 59 54 58 68 65 63 75 43 49 23 17 354 350 337 1 338 352 335 306 234 201 194 269 299 298 306
311 195 190 105 112 314 302 110 156 163 155 124 116 101 99 95 80 68 68 70 67 67 49 45 36 35 22 39 5 12 142 40 1 138 325 334 293 276 249 248 257 238 242 217 233 217 224 294 297
178 259 68 37 64 53 63 111 134 163 107 112 116 111 97 94 102 120 132 121 77 66 66 58 38 24 5 13 348 1 341 336 290 50 11 359 333 304 271 274 246 234 245 223 230 233 221 242 263
8 352 33 104 102 296 108 142 144 134 118 136 125 113 123 132 159 129 134 124 124 80 37 30 32 25 5 7 356 356 348 339 342 55 349 333 294 324 297 302 315 244 233 234 235 221 229 230 230
301 300 10 132 157 260 166 150 171 139 154 113 130 131 161 135 148 129 129 85 80 77 46 25 25 23 19 4 5 359 328 322 342 331 334 42 341 339 331 341 319 312 318 298 262 247 245 245 257
69 336 359 351 330 239 223 194 190 155 136 131 144 154 111 151 89 117 81 125 84 68 35 27 24 14 32 6 357 3 317 332 12 347 15 346 354 326 278 298 297 300 293 299 303 276 234 244 237
355 328 319 289 265 294 209 291 162 167 155 159 139 107 100 98 88 39 116 41 43 21 21 38 22 14 13 2 345 354 339 0 344 338 357 314 315 298 309 326 305 315 303 303 325 285 249 260 278
8 332 309 298 267 297 44 64 127 110 154 183 122 96 123 80 110 50 26 4 310 8 39 25 3 359 10 359 356 5 352 323 325 328 330 343 301 295 278 322 307 310 303 309 307 303 268 276 275
308 278 269 253 267 251 147 250 52 41 37 120 106 108 82 68 54 48 334 282 45 11 19 359 2 15 0 351 13 336 333 335 328 326 322 335 328 325 358 339 318 319 318 327 328 325 296 280 265
287 334 317 313 329 313 209 302 41 41 35 70 113 111 114 116 62 104 264 295 46 17 8 338 22 4 19 358 346 347 345 333 336 342 342 335 340 343 346 333 327 335 337 346 350 342 336 293 274
295 340 304 330 314 310 330 61 79 47 59 110 137 146 99 34 238 275 32 11 6 11 327 13 11 12 356 350 359 359 355 353 339 343 339 331 325 340 332 336 348 0 14 20 8 14 347 318 302
349 332 335 287 268 273 105 95 109 62 67 68 118 137 132 237 286 23 26 14 0 311 19 39 20 338 347 17 358 354 344 350 341 336 330 334 330 332 345 344 4 24 36 42 25 35 20 22 25
342 313 331 327 305 321 94 81 48 37 52 40 38 335 23 248 52 44 25 339 296 21 57 21 344 356 14 9 353 350 1 7 354 350 344 348 343 347 1 26 29 37 36 37 36 47 35 19 24
341 12 335 319 328 319 324 84 48 21 39 31 38 22 37 37 44 359 326 23 27 25 356 2 2 357 15 352 6 5 11 2 358 4 355 354 354 8 346 32 33 27 18 31 63 55 21 23 325
47 7 359 333 328 6 294 81 67 29 46 25 77 32 35 27 17 5 5 37 21 6 2 9 12 17 348 0 23 20 26 346 7 349 352 349 346 352 343 25 22 39 347 336 342 357 19 346 342